This demonstration page uses our WeatherBlox Daily Observations layout. Learn more.

Left ArrowRight Arrow

41.86663, -103.66717

Hourly Observations for October 27, 2021

Temp ( °F °C ) Dew Point ( °F °C ) Humidity (%) Winds ( mph kmh ) Pressure ( in mb ) Visibility ( mi km ) Precip ( " mm )
12:53 am 00:53 Cloudy 41 5 N/A N/A NW 9 15 29.81 1009 10 16 0.00 0.00
1:53 am 01:53 Cloudy 39 4 N/A N/A WNW 7 11 29.80 1009 10 16 N/A
2:53 am 02:53 Cloudy 41 5 N/A N/A WNW 10 17 29.80 1009 10 16 N/A
3:53 am 03:53 Cloudy 42 5.6 36 2.2 79 79 WNW 10 17 29.82 1010 10 16 N/A
4:53 am 04:53 Cloudy 42 5.6 35 1.7 76 76 WNW 12 19 29.85 1011 10 16 N/A
5:53 am 05:53 Clear 39 3.9 32 undefined 76 76 WNW 12 19 29.88 1012 10 16 N/A
6:53 am 06:53 Clear 36 2.2 31 -0.6 82 82 WNW 10 17 29.92 1013 10 16 N/A
7:53 am 07:53 Sunny 37 2.8 31 -0.6 79 79 WNW 7 11 29.93 1014 10 16 N/A
8:53 am 08:53 Sunny 39 3.9 31 -0.6 73 73 WNW 12 19 29.95 1014 10 16 N/A
9:53 am 09:53 Sunny 45 7.2 33 0.6 63 63 WNW 16 26 29.93 1014 10 16 N/A
10:53 am 10:53 Sunny 50 10 33 0.6 52 52 WNW 16 26 29.90 1013 10 16 N/A
11:53 am 11:53 Sunny 54 12.2 31 -0.6 42 42 WNW 21 33 29.88 1012 10 16 N/A
12:53 pm 12:53 Sunny 57 13.9 26 -3.3 30 30 NNW 25 41 29.85 1011 10 16 N/A
1:53 pm 13:53 Partly Cloudy 59 15 26 -3.3 28 28 NW 20 31 29.83 1010 10 16 N/A
2:53 pm 14:53 Mostly Sunny 58 14.4 24 -4.4 27 27 NW 26 43 29.82 1010 10 16 N/A
3:53 pm 15:53 Partly Cloudy 59 15 26 -3.3 28 28 NW 22 35 29.81 1010 10 16 N/A
4:53 pm 16:53 Sunny 58 14.4 24 -4.4 27 27 NW 18 30 29.85 1011 10 16 N/A
5:53 pm 17:53 Mostly Sunny 53 11.7 25 -3.9 34 34 NNW 12 19 29.89 1012 10 16 N/A
6:53 pm 18:53 Partly Cloudy 50 10 29 -1.7 44 44 NNW 15 24 29.95 1014 10 16 N/A
7:53 pm 19:53 Mostly Cloudy 50 10 30 -1.1 46 46 NW 14 22 29.98 1015 10 16 N/A
8:53 pm 20:53 Partly Cloudy 49 9.4 30 -1.1 48 48 N 28 44 29.99 1016 10 16 0.00 0.00
9:53 pm 21:53 Mostly Cloudy with Light Rain 47 8.3 32 undefined 56 56 NNW 16 26 30.02 1017 10 16 0.00 0.00
10:53 pm 22:53 Mostly Cloudy 45 7.2 32 undefined 61 61 WNW 13 20 30.02 1017 10 16 0.00 0.00
11:53 pm 23:53 Mostly Clear 42 5.6 31 -0.6 65 65 WNW 12 19 30.03 1017 10 16 N/A

Powered by AerisWeather